TimeCST,TemperatureF,Dew PointF,Humidity,Sea Level PressureIn,VisibilityMPH,Wind Direction,Wind SpeedMPH,Gust SpeedMPH,PrecipitationIn,Events,Conditions,WindDirDegrees,DateUTC
12:52 AM,-2.0,-11.9,63,30.43,10.0,WNW,19.6,27.6,N/A,,Clear,300,2014-01-23 06:52:00
1:52 AM,-2.0,-13.0,60,30.46,10.0,NW,19.6,24.2,N/A,,Clear,310,2014-01-23 07:52:00
2:52 AM,-2.9,-13.0,62,30.48,10.0,WNW,18.4,28.8,N/A,,Clear,300,2014-01-23 08:52:00
3:52 AM,-4.0,-13.0,65,30.50,10.0,WNW,19.6,26.5,N/A,,Clear,300,2014-01-23 09:52:00
4:52 AM,-5.1,-14.1,65,30.54,10.0,WNW,19.6,24.2,N/A,,Clear,300,2014-01-23 10:52:00
5:52 AM,-5.1,-15.0,62,30.58,10.0,WNW,19.6,25.3,N/A,,Clear,300,2014-01-23 11:52:00
6:52 AM,-6.0,-15.0,65,30.62,10.0,WNW,16.1,23.0,N/A,,Clear,300,2014-01-23 12:52:00
7:52 AM,-7.1,-16.1,65,30.65,10.0,WNW,11.5,-,N/A,,Clear,290,2014-01-23 13:52:00
8:52 AM,-5.1,-15.0,62,30.67,10.0,NW,16.1,21.9,N/A,,Clear,310,2014-01-23 14:52:00
9:52 AM,-4.0,-14.1,62,30.70,10.0,NW,16.1,-,N/A,,Clear,310,2014-01-23 15:52:00
10:52 AM,-2.0,-13.0,60,30.72,10.0,NW,16.1,24.2,N/A,,Clear,310,2014-01-23 16:52:00
11:52 AM,-0.9,-11.0,62,30.72,10.0,WNW,15.0,-,N/A,,Clear,290,2014-01-23 17:52:00
12:52 PM,1.9,-9.0,60,30.71,10.0,WNW,13.8,-,N/A,,Clear,300,2014-01-23 18:52:00
1:52 PM,3.0,-8.0,60,30.70,10.0,WNW,13.8,-,N/A,,Clear,300,2014-01-23 19:52:00
2:52 PM,3.0,-8.0,60,30.71,10.0,WNW,13.8,-,N/A,,Clear,290,2014-01-23 20:52:00
3:52 PM,1.9,-9.0,60,30.73,10.0,WNW,12.7,-,N/A,,Clear,290,2014-01-23 21:52:00
4:52 PM,1.0,-9.9,60,30.73,10.0,West,12.7,-,N/A,,Clear,280,2014-01-23 22:52:00
5:52 PM,-0.0,-9.9,63,30.74,10.0,West,10.4,-,N/A,,Clear,280,2014-01-23 23:52:00
6:52 PM,-0.9,-9.9,66,30.74,10.0,WNW,9.2,-,N/A,,Clear,290,2014-01-24 00:52:00
7:52 PM,-2.9,-11.0,68,30.73,10.0,West,5.8,-,N/A,,Clear,270,2014-01-24 01:52:00
8:52 PM,-4.0,-11.0,72,30.70,10.0,West,4.6,-,N/A,,Clear,260,2014-01-24 02:52:00
9:52 PM,-9.0,-14.1,79,30.69,10.0,SSW,4.6,-,N/A,,Clear,210,2014-01-24 03:52:00
10:52 PM,-7.1,-11.9,79,30.66,10.0,SW,4.6,-,0.00,,Clear,230,2014-01-24 04:52:00
11:52 PM,-4.0,-11.0,72,30.63,10.0,SW,3.5,-,N/A,,Clear,220,2014-01-24 05:52:00